Wind_Speed
8 8 20 21 17 11 15 15 19 9 5 8 20 22 21 19 11 13 13 14 15 16 19 22 23 23 23 22 23 24 23 23 21 19 17 16 17 17 16 16 17 18 17 15
7 20 19 15 16 14 10 14 14 6 3 6 12 18 21 23 22 16 16 16 17 14 16 21 24 27 27 27 26 25 25 24 25 22 21 17 19 19 19 20 20 19 19 19
18 12 11 15 13 10 11 18 15 5 4 1 3 14 24 26 26 24 19 18 14 18 19 18 24 29 28 29 29 28 28 27 26 25 21 18 15 13 16 17 21 21 20 20
11 11 17 14 18 17 8 4 7 10 5 4 7 8 16 17 23 24 20 18 18 18 19 18 25 29 32 32 28 29 29 29 28 27 25 26 24 22 22 22 24 23 22 21
10 17 19 21 19 18 3 9 8 4 4 2 5 5 10 11 17 18 25 22 21 20 20 21 28 32 33 30 33 32 31 30 29 30 29 28 27 25 21 23 30 25 22 23
4 1 10 10 13 18 16 12 13 7 3 5 12 10 16 15 17 15 19 21 21 21 20 22 29 26 29 30 31 32 33 33 33 33 34 32 30 28 24 22 29 30 26 22
5 8 1 9 12 17 8 11 3 2 4 8 2 13 21 11 17 19 19 19 18 18 18 18 18 25 28 32 34 34 35 36 36 36 35 36 34 32 30 28 26 32 29 26
12 7 10 5 8 8 7 8 6 9 7 6 2 10 5 13 18 18 14 14 12 16 14 16 20 27 31 35 36 36 36 36 36 36 37 36 36 34 33 30 26 31 35 31
15 6 2 4 7 16 5 5 3 4 2 1 6 7 10 16 14 11 16 18 16 14 12 14 18 24 28 29 35 39 36 35 35 37 34 34 34 34 31 29 29 28 35 34
13 7 0 4 6 5 13 13 5 2 5 7 9 7 9 11 13 16 14 16 17 17 11 11 11 16 18 19 22 25 30 34 36 34 34 33 32 32 29 27 29 31 34 33
15 6 3 6 5 9 7 6 2 1 3 5 5 7 4 8 10 9 7 6 9 11 11 10 10 14 15 18 21 24 27 30 31 31 29 28 29 32 32 31 34 33 35 36
4 6 7 3 1 6 4 9 9 7 6 5 5 12 5 3 3 3 8 9 8 7 9 8 11 13 15 19 21 25 24 26 26 26 25 28 31 32 35 36 36 34 38 39
10 6 7 4 3 3 9 10 12 5 1 8 6 10 1 5 3 3 4 8 9 9 7 7 7 10 13 15 16 18 19 21 23 22 24 28 31 33 35 35 34 36 39 42
7 5 8 12 9 12 7 17 17 15 5 17 16 29 18 9 7 2 3 9 12 6 7 8 7 8 13 12 13 14 15 16 21 22 22 22 31 33 33 34 35 38 41 44
6 5 6 4 11 11 16 21 19 21 30 14 29 26 27 21 20 20 10 9 8 8 8 7 9 9 12 14 15 14 13 14 16 17 19 22 29 31 33 34 36 37 42 45
3 5 8 3 10 8 7 19 25 29 29 25 28 24 19 10 5 9 11 9 10 9 9 8 9 9 13 16 17 15 17 19 19 18 19 21 27 31 31 32 35 38 41 42
11 6 6 7 9 7 5 20 23 22 23 25 20 32 12 10 11 15 15 11 13 11 10 11 11 10 16 20 20 20 20 21 22 22 24 25 26 30 31 32 35 39 40 38
15 6 2 4 4 7 1 2 19 24 18 24 20 24 16 16 15 14 16 18 19 12 12 12 11 12 14 16 20 22 24 24 25 25 24 26 27 28 30 32 36 38 38 39
11 7 4 6 10 5 8 6 9 13 16 21 23 26 23 22 14 22 22 16 16 16 13 16 16 9 9 14 18 23 26 24 24 24 26 27 29 30 31 34 36 36 36 37
8 8 5 4 6 9 1 1 2 10 8 16 21 22 20 11 8 15 7 1 6 9 9 10 10 6 7 10 16 23 24 26 27 31 30 29 30 31 34 35 36 36 37 37
9 7 11 4 5 4 6 4 6 6 4 2 4 12 10 11 10 3 6 5 8 9 12 7 3 3 5 10 17 19 17 22 29 30 29 29 29 32 34 36 37 38 36 35
10 8 6 3 6 12 7 6 9 2 3 2 2 1 3 5 2 3 6 7 9 11 16 13 4 3 4 9 16 18 19 19 21 24 26 28 30 32 34 37 37 37 38 36
5 6 6 10 6 2 10 3 2 2 3 1 2 2 2 2 5 6 7 8 8 12 13 14 11 6 1 6 11 14 15 16 19 21 23 26 28 31 32 35 35 34 34 33
3 2 4 4 5 4 6 3 3 2 4 3 2 2 3 3 4 6 6 7 8 11 13 16 14 12 8 5 7 12 10 13 17 21 23 25 28 30 32 32 35 35 32 29
1 9 6 2 1 2 3 3 6 6 7 8 8 8 9 5 7 7 5 7 9 11 14 15 14 13 11 8 6 7 9 11 14 17 20 22 23 27 28 28 32 31 31 33
2 2 6 4 4 3 3 7 6 8 8 7 7 8 10 10 9 7 7 10 10 12 15 15 15 13 13 10 7 6 6 9 12 15 18 20 21 21 23 24 19 21 27 27
Wind_Direction
177 187 204 193 198 229 199 204 211 215 130 208 228 238 254 259 261 264 244 240 229 219 216 212 210 207 201 200 200 201 203 206 199 201 204 207 211 215 215 210 208 216 217 215
160 218 202 197 199 213 177 198 207 130 106 218 244 263 256 257 253 253 257 242 231 223 216 213 212 210 206 204 205 204 207 205 206 204 206 211 214 221 218 220 224 222 228 226
196 195 173 178 191 191 193 205 193 188 138 282 321 271 261 256 249 248 252 249 236 219 219 209 211 214 211 211 208 207 206 208 209 208 206 209 214 218 215 220 224 228 232 234
220 179 177 195 196 190 186 217 151 135 145 224 189 284 260 250 244 229 239 234 227 220 223 213 210 213 215 214 213 211 211 209 209 208 207 207 209 213 215 216 225 231 233 235
181 175 184 192 198 189 136 152 133 138 115 11 205 257 262 241 246 237 232 236 229 221 218 212 209 210 213 213 212 212 213 212 212 210 213 213 215 219 219 218 225 218 226 233
108 0 171 177 177 166 125 89 62 53 75 245 218 212 263 239 239 243 238 229 226 221 219 221 216 206 210 212 213 212 212 215 213 212 212 216 217 216 217 218 218 213 215 220
141 159 112 163 105 142 130 146 105 181 197 245 329 220 247 260 244 240 236 228 223 222 216 218 210 203 206 208 210 210 212 216 216 214 214 215 219 221 220 221 213 212 207 211
173 178 171 167 161 165 153 171 168 200 213 229 65 238 246 252 259 259 255 256 249 229 225 215 210 209 208 208 207 207 210 214 212 212 215 214 217 218 221 221 214 207 209 213
177 162 132 131 152 149 158 186 69 106 46 221 224 277 252 262 257 261 253 247 250 245 228 217 219 219 219 211 209 207 207 212 212 213 216 216 216 217 218 220 214 207 210 212
159 122 136 130 97 45 182 149 155 123 195 243 240 265 256 287 272 232 243 243 251 254 238 234 231 226 227 224 222 216 212 211 211 213 213 214 214 216 216 212 207 213 215 208
165 124 124 143 191 166 143 173 100 165 236 240 282 266 206 269 284 306 284 288 277 269 262 254 235 237 232 222 218 219 216 212 211 210 212 211 211 216 216 211 212 220 212 204
124 112 131 103 270 166 143 164 177 194 191 250 309 254 177 198 338 275 301 297 294 294 309 300 264 226 220 219 213 211 212 210 208 206 203 211 213 217 219 219 223 219 210 201
170 125 116 101 62 318 210 195 204 196 81 206 202 261 83 225 192 168 292 329 337 332 316 291 280 263 252 235 217 205 201 204 207 203 202 210 216 216 219 219 218 212 207 197
140 156 177 186 190 138 184 194 197 200 199 229 228 259 236 241 239 299 337 334 322 315 308 302 272 250 246 239 222 207 200 201 203 204 203 204 210 216 218 218 214 210 203 197
156 133 131 92 146 153 192 195 188 201 225 213 238 243 251 255 266 287 302 297 300 308 300 287 273 252 236 227 210 201 200 195 199 201 206 210 213 213 216 213 210 205 199 195
151 134 143 74 151 157 170 202 198 208 224 232 249 266 264 247 310 274 276 268 289 288 298 281 266 250 239 221 221 206 202 194 200 203 206 206 211 210 210 211 206 201 190 188
160 138 141 165 163 142 266 209 201 210 218 224 234 241 250 270 259 259 266 261 246 263 273 286 271 243 233 228 208 211 206 198 195 203 208 210 208 206 205 203 197 192 187 185
155 119 93 138 145 208 176 27 203 204 213 221 245 257 260 258 261 262 264 268 277 250 250 269 275 257 236 229 218 213 211 204 200 202 207 208 207 206 201 198 192 187 186 185
181 144 119 154 204 308 271 177 162 185 239 228 237 252 257 257 269 272 252 253 262 278 276 259 281 256 243 225 224 210 207 206 202 203 204 207 208 205 197 192 190 187 186 185
168 196 153 163 183 217 214 110 232 165 283 213 217 239 243 245 255 260 300 318 315 322 305 278 267 244 220 234 220 211 197 195 200 205 205 206 206 203 198 195 192 189 190 187
164 183 204 183 218 262 234 163 167 150 214 132 212 245 249 216 234 345 7 23 7 344 348 352 319 279 236 220 211 209 211 203 211 209 205 204 206 205 201 195 193 191 188 187
162 157 183 179 212 243 157 122 188 168 90 117 117 74 180 230 292 345 25 18 14 360 354 2 348 236 218 216 210 210 214 224 224 217 207 204 204 203 201 198 193 191 189 185
165 179 167 194 192 187 181 129 128 88 95 101 106 44 25 70 51 42 24 20 20 16 358 3 355 323 315 218 225 222 229 226 221 217 211 205 203 203 202 193 187 181 184 181
178 161 163 135 210 183 173 121 119 94 107 93 62 72 64 82 53 72 48 27 27 16 10 9 10 6 354 336 261 251 241 215 208 205 209 205 200 199 199 195 192 186 183 181
132 146 145 253 303 56 190 169 150 118 97 91 64 41 28 43 49 27 41 34 23 20 21 25 23 16 4 348 306 274 260 231 206 207 208 204 197 194 190 192 194 194 197 197
9 124 193 199 135 134 112 155 140 116 100 84 87 72 52 39 35 37 27 28 22 15 21 26 21 17 7 3 346 319 269 236 216 205 201 195 196 190 188 184 181 199 207 205
Height
820 824 810 813 819 816 810 820 823 829 833 834 834 830 828 821 825 825 821 822 822 822 826 831 835 839 840 843 847 850 855 859 862 865 869 871 872 874 875 876 877 879 880 882
819 806 805 812 815 817 819 823 824 836 839 839 831 831 819 814 815 816 813 812 815 820 821 825 829 832 833 836 840 844 848 853 856 859 863 866 868 870 871 872 873 875 877 879
795 796 804 811 819 825 822 823 826 833 842 845 849 836 820 806 803 805 808 806 806 811 812 817 821 825 828 830 833 837 840 846 850 854 858 861 864 866 867 867 869 872 873 875
799 797 804 811 815 818 835 830 831 840 844 852 843 836 799 794 794 794 800 802 800 802 805 807 812 816 819 821 828 831 835 838 842 847 850 852 855 857 859 862 863 866 869 870
795 799 804 808 809 814 827 831 833 844 851 857 849 855 796 792 792 785 783 788 790 790 794 797 799 803 809 816 816 821 827 831 835 839 843 845 847 850 853 854 856 859 863 865
803 805 801 799 806 811 830 842 851 862 866 860 839 840 790 784 783 776 772 777 779 781 784 786 790 795 801 807 810 813 817 821 826 829 833 837 840 843 846 848 850 853 856 859
804 805 808 804 818 823 823 834 854 858 857 830 832 826 794 770 763 763 764 765 768 770 773 778 785 789 791 795 798 803 807 810 817 820 823 826 831 836 838 841 843 845 850 853
788 804 804 801 801 818 826 819 822 831 825 809 839 809 779 770 764 762 766 765 763 764 767 769 773 777 779 781 786 791 796 799 806 810 812 816 821 825 829 832 836 837 840 844
780 799 806 802 806 811 833 827 826 830 865 830 805 790 779 771 769 770 766 763 763 761 763 765 767 770 772 774 776 779 784 790 797 800 806 809 813 816 820 825 829 831 833 837
762 794 809 814 811 816 810 818 828 833 830 825 785 797 780 768 757 758 760 757 755 754 760 761 763 765 768 771 775 778 780 782 787 793 797 800 805 810 815 819 821 824 828 833
751 769 813 811 809 811 816 818 823 815 818 806 802 774 759 762 756 757 757 759 758 758 756 757 757 762 765 765 767 771 773 775 780 785 790 794 797 804 808 811 813 817 821 826
759 772 796 804 806 803 803 811 808 801 818 816 809 778 763 764 765 765 761 758 756 758 757 758 755 755 757 758 759 761 765 770 772 777 783 788 790 795 801 804 807 811 814 819
752 772 797 813 815 815 803 802 799 796 809 810 808 765 762 764 761 762 760 757 754 755 756 758 758 757 756 757 756 755 759 763 768 773 777 781 786 789 793 797 801 803 808 812
743 760 754 758 759 781 801 798 799 800 808 783 786 755 751 753 758 760 758 755 751 755 755 754 755 754 755 756 756 756 757 761 765 769 772 776 778 783 788 793 795 799 802 808
738 759 757 764 767 772 775 784 793 796 773 787 758 760 745 754 753 748 755 757 753 750 751 751 752 751 750 753 753 753 755 758 762 765 768 770 774 779 783 788 791 794 798 804
745 760 755 778 772 771 776 778 778 779 775 777 757 761 746 755 757 757 755 755 752 748 746 747 747 747 749 749 752 751 752 750 756 761 764 768 772 775 778 783 786 791 795 800
742 758 762 772 772 776 779 765 768 770 769 761 770 735 750 752 750 749 746 747 748 745 743 740 740 740 741 744 743 747 749 748 750 755 760 765 768 771 774 778 783 788 792 798
735 756 767 779 787 775 747 753 746 753 752 756 752 741 748 747 745 745 742 738 737 741 739 735 732 733 737 741 742 744 748 747 747 751 758 763 768 771 773 776 780 785 790 794
732 735 769 764 756 747 737 752 753 757 748 747 748 745 744 741 747 739 732 734 735 734 732 729 728 729 732 734 740 741 742 745 747 750 753 760 765 769 771 775 779 783 789 794
734 731 738 778 754 755 738 744 744 742 746 730 735 736 735 742 748 722 722 731 734 735 731 725 726 726 728 734 739 744 738 739 743 745 748 755 760 764 768 773 778 783 790 793
744 748 743 758 748 750 740 743 742 747 737 735 735 733 734 737 731 735 734 735 736 735 730 726 725 726 728 732 737 743 746 739 741 743 745 750 756 761 765 770 775 780 787 793
723 736 741 758 748 738 736 742 730 724 733 734 738 741 739 739 740 740 738 736 734 734 733 731 730 731 730 732 737 741 741 741 745 747 744 747 752 758 764 767 772 777 784 790
716 708 721 721 718 718 724 720 728 732 733 739 738 743 742 739 741 740 740 739 739 739 740 737 737 736 733 732 736 736 735 739 743 749 748 747 752 756 762 766 770 776 781 786
720 725 717 724 728 721 725 730 733 735 738 741 741 741 740 739 741 741 744 745 743 744 742 741 740 739 737 737 738 741 739 736 737 742 749 750 750 755 760 766 770 773 778 783
707 717 726 724 726 729 731 733 734 738 738 740 744 748 748 747 747 749 749 748 749 748 747 746 746 744 743 742 743 742 743 740 736 739 744 749 754 755 759 764 768 771 776 779
720 714 700 699 712 710 723 729 734 735 740 743 744 748 752 752 754 754 757 756 756 756 754 752 752 751 749 746 744 743 742 741 739 742 743 747 751 756 758 762 767 771 776 779